This is the latest recevied weather packets stored in our database for station/object 5B4APJ-13. If no packets are shown the sender has not sent any weather packets the latest 10 day(s).
| Time | Temp. | Humidity | Pressure | Rain* | Wind** | Luminosity | Snow |
|---|---|---|---|---|---|---|---|
| 1777958822 | 11.67° C | 78% | 1011.6 hPa | 0 mm | 0.45 m/s, 306° | 168 W/m² | - |
| 1777958522 | 11.67° C | 78% | 1011.4 hPa | 0 mm | 0.89 m/s, 58° | 121 W/m² | - |
| 1777958222 | 11.67° C | 77% | 1011.4 hPa | 0 mm | 1.79 m/s, 15° | 134 W/m² | - |
| 1777957922 | 11.67° C | 76% | 1011.6 hPa | 0 mm | 2.24 m/s, 14° | 119 W/m² | - |
| 1777957622 | 11.67° C | 75% | 1011.7 hPa | 0 mm | 2.24 m/s, 354° | 120 W/m² | - |
| 1777957322 | 11.67° C | 76% | 1011.4 hPa | 0 mm | 0.45 m/s, 4° | 107 W/m² | - |
| 1777957022 | 11.67° C | 75% | 1011.5 hPa | 0 mm | 0 m/s | 114 W/m² | - |
| 1777956723 | 11.67° C | 75% | 1011.2 hPa | 0 mm | 0.89 m/s, 17° | 96 W/m² | - |
| 1777956423 | 11.67° C | 76% | 1011.3 hPa | 0 mm | 0 m/s | 89 W/m² | - |
| 1777956123 | 11.67° C | 75% | 1011.3 hPa | 0 mm | 1.34 m/s, 58° | 74 W/m² | - |
| 1777955823 | 11.67° C | 75% | 1010.9 hPa | 0 mm | 0.89 m/s, 63° | 68 W/m² | - |
| 1777955523 | 11.67° C | 76% | 1011.2 hPa | 0 mm | 0.89 m/s, 69° | 65 W/m² | - |
| 1777955223 | 11.67° C | 76% | 1011 hPa | 0 mm | 0 m/s | 65 W/m² | - |
| 1777954923 | 11.11° C | 76% | 1010.9 hPa | 0 mm | 0.45 m/s, 51° | 67 W/m² | - |
| 1777954624 | 11.11° C | 77% | 1010.8 hPa | 0 mm | 0.89 m/s, 346° | 61 W/m² | - |
| 1777954323 | 11.11° C | 76% | 1010.7 hPa | 0 mm | 0.89 m/s, 26° | 57 W/m² | - |
| 1777954023 | 11.11° C | 77% | 1010.7 hPa | 0 mm | 0.45 m/s, 68° | 50 W/m² | - |
| 1777953724 | 11.11° C | 77% | 1010.6 hPa | 0 mm | 0 m/s | 44 W/m² | - |
| 1777953424 | 10.56° C | 77% | 1010.5 hPa | 0 mm | 0.89 m/s, 112° | 37 W/m² | - |
| 1777953124 | 10.56° C | 78% | 1010.5 hPa | 0 mm | 0 m/s | 29 W/m² | - |
| 1777952823 | 10.56° C | 77% | 1010.5 hPa | 0 mm | 0.45 m/s, 113° | 23 W/m² | - |
| 1777952524 | 10.56° C | 77% | 1010.5 hPa | 0 mm | 0.89 m/s, 112° | 20 W/m² | - |
| 1777952223 | 10.56° C | 79% | 1010.3 hPa | 0 mm | 0.45 m/s, 127° | 16 W/m² | - |
| 1777951924 | 10.56° C | 77% | 1010.2 hPa | 0 mm | 0.45 m/s, 128° | 15 W/m² | - |
| 1777951623 | 10.56° C | 78% | 1010.3 hPa | 0 mm | 0 m/s | 12 W/m² | - |
* Rain latest hour (hover to see other rain measurements)
** Current wind speed in m/s (hover to see current wind gust speed)